Погода в Мерсине

Турция     36°47′22″N   34°37′22″E
темп.,
°C
ветер,
м/с
пор.,
м/с
влажн.,
%
обл.,
%
осадки,
мм/ч
давл.,
гПа
погр.,
м
25 февраля, чт
чт2500:00+12ссв33470 0.0 102367
03:00+10ссв12470 0.0 102360
06:00+10св114812 0.0 102365
09:00+14в114447 0.0 102481
12:00+14юв21490 0.0 1024373
15:00+15ююв22520 0.0 1023424
18:00+14ююз11633 0.0 102477
21:00+12с22611 0.0 102566
26 февраля, пт
пт2600:00+11с11570 0.0 102670
03:00+9всв12610 0.0 102566
06:00+8всв12590 0.0 102569
09:00+11в11480 0.0 1025105
12:00+14ююв21470 0.0 1024349
15:00+15ю32490 0.0 1022442
18:00+14ююз22600 0.0 102293
21:00+11зсз11670 0.0 102286
27 февраля, сб
сб2700:00+11св23610 0.0 102273
03:00+9св22630 0.0 102178
06:00+8св11640 0.0 102075
09:00+12всв11510 0.0 102095
12:00+14ююв21460 0.0 1019414
15:00+15ю32470 0.0 1017436
18:00+14ююз23640 0.0 1016198
21:00+11зюз12690 0.0 1017133
28 февраля, вс
вс2800:00+11зсз11680 0.0 1017110
03:00+10ссв23710 0.0 101663
06:00+9св23701 0.0 101676
09:00+12св225811 0.0 1016152
12:00+14юв226153 0.0 1016482
15:00+15юв336637 0.0 1014640
18:00+14юв11728 0.1 1014219
21:00+12з12794 0.1 1015121
1 марта, пн
пн100:00+11с22740 0.4 101645
03:00+11св457416 1.6 1015154
06:00+11с347699 0.6 1015230
09:00+10ссв4577100 1.7 1016526
12:00+10сз4573100 1.7 1016256
15:00+14сз3452100 1.9 10151214
18:00+13ссв235989 0.1 1015472
21:00+11зсз335693 0.2 1016214